Presure
151 221 151 226 224 216 222 214 210 209 205 108 230 238 240 201 229 207 201 191 202 190 201 190 198 182 183 196 193 181 199 183 97 194 204 201 99 240 238 262 192 185 149 162
227 230 250 225 227 210 215 205 150 213 208 204 130 228 189 207 204 207 191 190 212 204 181 171 190 190 189 181 180 182 181 140 126 210 206 211 214 221 233 267 253 184 142 133
231 237 229 212 211 208 209 222 206 214 203 205 205 215 210 208 200 202 186 212 200 185 197 188 192 196 177 183 181 180 201 202 210 199 193 214 214 223 239 267 233 225 187 193
229 229 211 203 194 220 216 207 182 209 205 201 205 209 223 217 200 191 177 199 175 187 187 197 185 181 155 113 185 183 202 202 203 212 223 223 234 241 268 274 214 237 203 195
206 205 208 230 128 208 203 210 210 211 211 203 204 214 212 205 203 185 194 209 187 205 160 190 157 181 165 180 173 174 189 181 207 223 238 251 238 243 249 233 222 216 233 198
209 220 234 88 207 202 202 199 206 215 214 210 210 220 194 211 188 180 195 196 174 181 189 178 182 182 172 184 189 185 150 193 211 219 248 165 236 259 240 245 266 221 243 250
235 195 184 177 176 199 207 208 203 147 199 205 208 216 180 218 185 141 94 202 171 138 163 184 178 181 181 170 184 193 193 205 216 212 228 252 249 240 221 224 233 232 238 253
180 170 167 198 202 185 190 212 104 166 192 203 203 200 184 215 184 190 189 194 154 184 178 154 178 172 187 167 163 164 177 204 213 210 226 248 274 207 215 215 227 235 235 243
169 163 160 190 224 233 173 95 147 212 214 214 201 207 201 190 185 181 187 170 142 149 174 163 159 184 178 157 176 171 180 198 212 210 216 207 198 229 215 209 207 216 199 252
209 198 204 200 195 170 150 168 177 196 208 213 213 211 214 193 177 170 170 188 139 147 164 164 149 176 165 167 161 170 185 192 198 177 222 232 182 216 192 186 187 186 186 195
197 199 196 201 197 161 217 157 184 183 200 205 210 207 211 214 178 188 191 199 191 173 147 168 162 165 176 176 166 172 169 166 203 155 210 206 208 209 187 176 193 165 185 181
184 195 163 106 205 196 208 233 221 102 183 188 198 210 207 213 187 197 180 197 182 144 170 175 154 187 167 172 169 178 160 171 144 195 203 208 217 206 185 171 187 164 172 158
181 177 182 181 166 196 203 209 231 180 189 183 192 202 194 207 198 186 196 187 176 134 135 143 172 177 191 182 165 182 158 162 157 196 187 199 201 201 189 171 163 165 170 159
195 181 135 176 108 180 187 191 179 168 215 218 220 222 183 209 181 178 188 159 132 137 141 154 201 180 184 179 159 159 137 153 155 181 178 178 194 191 181 169 157 149 165 169
130 187 189 158 173 175 176 177 179 190 191 194 139 214 217 184 256 202 177 170 165 137 136 162 174 162 199 184 201 204 161 146 166 158 158 189 191 194 173 173 168 170 168 164
179 174 169 178 181 169 167 190 170 178 176 194 193 188 210 235 290 261 250 186 147 131 136 177 168 181 189 210 201 203 208 162 158 160 177 170 189 188 180 175 171 169 173 169
159 177 181 167 168 174 179 173 180 192 174 183 193 199 194 236 296 253 237 164 142 149 191 195 194 211 223 204 196 198 214 178 156 160 161 148 170 162 187 187 182 173 169 183
171 130 183 173 163 160 167 178 174 185 185 196 182 216 201 202 233 238 227 225 168 217 224 217 233 220 211 200 194 193 187 199 136 153 132 165 125 159 171 171 171 174 183 185
161 168 174 180 174 158 160 175 172 175 177 188 184 185 215 206 194 208 217 200 217 216 204 208 238 220 222 204 193 196 186 176 163 216 174 163 147 131 166 152 139 166 177 156
179 172 172 179 178 173 176 170 172 172 173 178 176 184 186 189 212 195 195 203 203 212 223 223 208 204 193 197 192 191 185 200 188 164 183 180 169 179 139 133 137 145 160 154
178 179 176 167 179 143 168 171 165 187 176 176 185 179 186 186 187 197 217 191 201 195 194 199 196 206 214 198 195 197 192 188 162 169 178 186 148 182 180 152 149 146 151 159
183 180 168 174 186 173 166 178 171 174 184 173 177 177 176 180 179 180 186 203 213 189 196 192 183 182 184 184 186 178 192 196 183 193 162 196 153 200 178 183 171 163 150 168
185 192 200 197 189 179 177 178 170 117 170 171 172 172 175 173 176 180 180 177 180 192 212 198 175 196 184 188 188 192 190 185 187 185 184 176 179 155 157 194 152 177 183 160
197 198 194 194 196 200 186 172 180 169 178 176 172 175 176 174 175 164 174 172 174 171 183 186 175 220 220 183 183 182 185 188 191 191 191 193 194 202 193 196 201 195 170 175
206 204 205 189 190 196 203 198 185 178 175 176 176 183 168 164 168 177 175 170 197 170 166 180 177 177 182 206 228 211 193 191 192 194 192 192 192 192 191 186 194 205 228 222
221 221 213 201 197 198 195 200 205 182 179 176 170 170 182 178 175 175 171 178 179 178 173 173 174 184 173 186 194 212 227 211 213 206 233 223 216 209 212 213 200 203 207 205
Wind_Speed
42 40 44 24 27 30 27 29 26 26 34 7 26 25 22 15 10 14 16 18 17 15 13 16 11 11 6 10 7 14 14 15 9 24 22 18 10 20 33 47 69 65 42 55
34 31 22 27 26 31 28 28 12 25 28 24 12 19 13 13 16 12 16 17 18 15 14 11 9 4 7 10 15 13 16 18 18 16 17 17 17 21 26 32 55 65 41 39
29 23 24 27 27 27 26 18 21 24 23 24 20 14 10 16 16 12 17 15 18 15 12 14 7 0 11 13 15 17 18 19 18 21 15 17 18 22 22 27 53 69 67 70
24 23 23 23 22 20 20 19 16 23 25 26 19 12 7 14 17 19 20 19 18 13 17 14 14 11 16 17 13 16 15 13 16 20 20 19 20 21 21 22 46 56 70 68
23 21 21 21 7 16 13 15 18 22 26 25 15 9 10 18 20 20 18 19 21 20 12 19 15 12 19 12 19 23 15 16 17 19 18 13 13 13 19 26 36 49 59 65
22 20 19 13 13 13 13 15 17 17 19 19 14 10 20 15 24 24 21 21 16 14 22 14 16 15 12 12 8 9 14 24 19 18 21 3 5 13 15 18 23 40 47 57
16 15 15 14 13 12 9 12 13 15 18 17 13 11 23 14 24 10 9 22 15 7 15 22 17 18 14 7 10 11 10 18 22 12 19 10 4 14 11 19 22 33 39 49
17 14 14 15 16 14 8 10 14 12 16 19 15 19 27 16 25 26 27 26 10 29 23 11 21 20 12 21 24 25 24 17 17 13 14 16 6 7 12 12 13 24 34 44
19 17 18 10 10 12 11 10 12 17 17 18 18 17 18 25 28 31 32 24 8 11 27 14 12 21 15 16 19 24 21 16 13 11 6 9 10 16 15 19 20 19 34 36
14 13 12 11 9 15 12 18 15 14 16 16 14 15 16 29 31 33 31 33 8 12 20 18 18 22 19 21 21 26 14 13 11 12 6 7 11 11 20 23 25 28 30 36
13 11 8 6 8 11 14 17 19 16 15 12 14 17 16 21 32 33 31 32 30 29 11 24 15 16 22 24 26 23 24 20 7 15 7 8 7 16 27 28 24 34 29 31
13 9 9 19 8 9 13 8 9 20 15 14 12 12 16 19 32 28 34 29 30 8 28 31 13 41 19 24 24 19 17 21 4 1 7 7 7 17 30 29 26 32 34 36
16 15 13 11 10 8 11 9 10 17 22 18 16 17 22 22 26 27 28 33 28 8 10 13 30 36 38 24 22 17 15 20 14 3 7 11 11 16 26 29 31 31 33 37
16 20 19 17 19 12 10 11 12 12 17 22 24 27 23 24 29 27 30 22 9 11 13 20 25 35 42 30 21 28 18 13 12 13 4 10 13 20 31 34 24 23 35 38
22 17 19 23 23 18 16 16 15 16 16 14 21 19 19 25 21 30 31 30 28 11 17 29 34 23 28 22 35 35 29 20 26 17 15 14 16 17 20 32 33 39 42 41
32 25 23 23 23 28 25 18 19 20 19 18 17 18 18 19 18 15 20 38 23 16 19 37 27 34 33 30 32 23 28 30 25 24 22 24 23 24 29 35 36 37 40 42
36 33 29 29 30 27 26 24 22 21 21 21 20 19 22 14 14 13 14 24 21 23 38 37 37 28 22 27 29 22 21 27 29 31 29 16 21 19 28 30 34 38 39 33
45 30 38 32 36 39 35 27 29 24 23 18 23 19 18 16 7 4 8 13 17 20 20 18 18 22 23 27 28 26 22 23 21 27 24 32 21 29 34 29 29 31 34 35
49 50 42 38 37 41 43 36 32 31 28 20 21 24 18 14 17 11 8 16 13 17 19 17 13 16 19 24 28 28 24 24 23 30 29 38 30 25 42 29 26 32 35 37
57 54 53 49 43 39 39 43 38 37 36 27 27 24 20 16 18 19 14 12 14 13 11 13 16 19 22 24 26 28 27 22 26 27 26 33 34 40 31 26 31 40 41 46
63 61 60 53 51 37 46 49 44 36 39 36 29 27 22 21 21 19 18 17 17 17 19 17 16 17 23 27 28 32 32 34 34 33 39 44 37 40 38 47 47 44 48 51
77 70 59 59 60 51 49 52 45 43 39 40 36 29 31 26 29 25 23 20 19 22 21 23 26 27 28 28 31 31 38 42 43 43 44 48 45 52 44 49 53 59 52 56
81 78 77 73 68 61 59 54 51 24 47 44 41 35 36 36 35 30 27 27 25 24 26 28 28 31 33 36 39 41 42 43 46 47 47 46 45 48 55 54 56 50 51 55
88 85 81 79 76 74 67 57 57 53 53 50 46 41 38 38 37 34 33 32 32 31 30 29 30 33 38 40 42 45 47 49 52 53 55 58 60 63 59 61 61 60 55 48
94 90 88 83 80 76 76 74 67 60 58 56 51 46 45 45 43 40 40 39 32 39 38 33 38 38 38 39 45 51 52 56 59 60 59 60 61 62 63 59 59 57 55 58
98 97 93 86 84 82 80 79 75 67 64 60 52 48 50 45 46 45 42 40 38 38 44 42 41 40 45 45 47 49 52 53 59 59 56 59 60 65 64 62 67 67 66 66
Wind_Direction
254 268 263 265 259 263 264 275 284 277 276 255 279 270 274 251 240 226 226 247 248 256 233 251 257 266 295 323 291 280 299 293 299 283 282 274 319 250 228 217 215 220 218 221
260 266 262 256 253 269 274 280 277 253 264 274 328 267 275 241 232 220 223 245 230 216 251 281 241 240 295 274 285 304 300 306 267 289 277 265 242 238 228 229 210 220 227 225
260 256 248 259 265 275 274 266 254 251 256 263 269 271 262 244 230 211 222 221 204 227 216 221 201 223 266 269 285 296 312 289 288 276 283 257 247 245 233 229 213 212 219 216
250 249 257 266 266 266 261 257 238 246 245 252 264 274 268 233 214 213 224 202 242 217 212 189 209 236 335 318 295 294 307 297 291 292 285 263 257 248 236 220 212 213 212 214
249 252 257 262 203 255 251 253 242 242 245 251 253 245 199 207 197 211 222 225 220 200 288 195 297 225 331 268 291 297 287 343 317 302 317 299 247 218 210 208 208 211 214 211
245 249 243 179 233 248 252 252 252 245 244 248 243 242 227 214 204 213 219 231 234 219 202 236 235 237 310 256 303 355 7 344 341 317 346 219 243 200 188 198 198 206 209 206
232 217 218 239 260 247 231 236 239 265 240 242 241 241 228 210 203 235 319 209 230 294 287 217 256 251 254 304 308 341 336 346 345 330 8 16 207 179 187 194 195 200 202 202
206 220 239 254 260 263 282 240 271 243 243 243 239 205 221 207 203 207 216 205 245 212 232 294 257 303 224 292 320 317 329 348 352 344 22 34 49 165 166 158 175 196 201 200
227 233 245 254 258 250 259 264 280 243 243 246 221 232 222 207 202 223 218 246 279 281 243 306 333 241 256 321 294 311 330 339 357 360 27 130 160 165 170 162 163 176 188 191
229 238 238 243 248 267 259 273 276 261 253 245 245 243 231 219 215 236 245 221 302 295 253 277 288 271 293 292 313 309 339 337 357 12 55 67 209 159 167 172 176 183 191 193
219 222 220 246 241 255 287 272 254 268 259 250 239 236 229 223 220 221 229 223 233 251 267 258 290 316 260 266 297 289 304 325 341 9 41 128 188 171 173 177 178 189 185 192
215 221 199 213 258 268 284 265 261 282 270 257 242 227 233 227 219 223 237 233 242 265 269 265 334 256 289 263 279 277 301 312 196 110 95 94 171 177 177 182 182 198 200 206
230 225 231 236 230 271 278 277 244 244 260 265 263 256 221 226 226 224 224 235 244 271 290 313 280 278 256 248 280 256 301 305 323 222 148 139 154 170 180 191 199 206 208 214
221 227 232 231 236 249 266 278 274 252 256 260 266 272 225 245 234 231 228 235 261 293 312 310 264 272 270 270 275 277 282 281 291 292 266 289 179 187 190 197 219 216 219 219
229 230 223 235 239 248 254 263 273 286 284 289 259 289 287 256 271 245 245 251 262 307 311 292 281 304 276 278 274 244 263 274 280 282 299 231 196 193 215 213 219 216 219 224
254 242 244 246 244 247 251 271 260 271 272 287 285 284 292 287 279 256 240 248 274 287 286 267 291 281 278 261 264 267 242 258 262 264 263 285 220 211 217 221 226 227 230 236
248 247 240 244 255 254 257 255 263 270 268 280 285 286 288 319 278 249 246 269 265 259 258 261 266 268 248 253 268 268 241 237 259 263 261 237 245 249 218 218 229 241 241 231
253 248 248 237 248 260 261 258 257 265 264 275 275 299 286 304 351 288 268 272 265 273 269 263 259 249 245 252 265 271 267 257 271 263 284 245 283 262 263 248 244 244 234 234
253 256 251 247 239 253 263 263 262 264 267 267 271 276 304 298 289 301 300 286 284 279 285 271 260 239 227 240 252 267 278 266 255 260 249 251 259 275 256 253 269 255 257 258
248 250 254 254 249 242 252 258 262 266 269 268 268 275 277 286 304 285 292 301 296 302 286 267 260 253 269 266 270 276 289 271 286 234 253 253 266 261 269 272 274 270 258 261
251 250 251 251 251 246 245 252 254 253 261 268 263 271 277 274 278 294 296 282 291 287 294 291 284 271 255 265 269 271 270 276 249 256 279 290 265 268 269 251 259 266 264 263
253 251 246 249 249 249 246 250 254 251 252 262 263 263 266 269 273 274 285 298 294 287 283 280 288 291 290 286 281 285 281 276 268 280 241 283 256 284 254 257 251 258 268 256
251 251 249 249 249 247 249 248 251 257 253 255 259 257 260 268 272 274 276 283 288 296 287 288 287 281 286 282 283 280 280 286 281 286 287 272 276 265 262 287 260 267 285 285
248 247 248 249 248 248 246 248 247 250 250 251 252 252 254 261 263 272 273 278 280 284 284 288 288 293 286 284 283 285 283 282 282 283 283 284 285 285 285 288 290 290 275 273
247 246 245 245 249 248 247 244 245 245 247 248 249 248 254 265 267 264 270 274 279 279 284 281 284 285 291 295 292 283 282 283 283 283 284 284 285 286 287 289 287 288 279 277
242 241 242 243 244 243 245 246 245 244 246 248 249 249 250 254 257 259 264 267 269 270 273 279 281 283 283 291 287 294 285 281 279 281 282 280 280 282 283 284 286 287 286 284